05-07-2023, 00:00:04,    272,    1.3,    9.1,   0.00,   0.00, 1004.7,    0.3, -999.0
05-07-2023, 00:00:14,    228,    0.8,    9.1,   0.00,   0.00, 1004.7,    0.5, -999.0
05-07-2023, 00:00:24,    229,    0.5,    9.1,   0.00,   0.00, 1004.7,    0.3, -999.0
05-07-2023, 00:00:34,    229,    0.0,    8.9,   0.00,   0.00, 1004.6,    0.5, -999.0
05-07-2023, 00:00:44,    229,    0.0,    9.0,   0.00,   0.00, 1004.6,    0.2, -999.0
05-07-2023, 00:00:54,    229,    0.0,    9.1,   0.00,   0.00, 1004.6,    0.2, -999.0
05-07-2023, 00:01:04,    229,    0.0,    9.0,   0.00,   0.00, 1004.6,    0.4, -999.0
05-07-2023, 00:01:14,    229,    0.0,    8.9,   0.00,   0.00, 1004.6,    0.3, -999.0
05-07-2023, 00:01:24,    229,    0.0,    8.9,   0.00,   0.00, 1004.6,    0.2, -999.0
05-07-2023, 00:01:34,    230,    0.0,    9.0,   0.00,   0.00, 1004.6,    0.3, -999.0
05-07-2023, 00:01:44,    229,    0.0,    9.0,   0.00,   0.00, 1004.6,    0.2, -999.0
05-07-2023, 00:01:54,    230,    0.9,    9.1,   0.00,   0.00, 1004.7,    0.3, -999.0
05-07-2023, 00:02:04,    240,    0.2,    9.1,   0.00,   0.00, 1004.7,    0.4, -999.0
05-07-2023, 00:02:14,    241,    0.0,    9.1,   0.00,   0.00, 1004.7,    0.4, -999.0
05-07-2023, 00:02:24,    241,    0.0,    9.1,   0.00,   0.00, 1004.6,    0.4, -999.0
05-07-2023, 00:02:34,    241,    0.0,    9.0,   0.00,   0.00, 1004.6,    0.2, -999.0
05-07-2023, 00:02:44,    240,    0.0,    9.0,   0.00,   0.00, 1004.6,    0.3, -999.0
05-07-2023, 00:02:54,    241,    0.0,    9.0,   0.00,   0.00, 1004.7,    0.2, -999.0
05-07-2023, 00:03:04,    241,    0.5,    9.1,   0.00,   0.00, 1004.7,    0.5, -999.0
05-07-2023, 00:03:14,    241,    0.0,    9.1,   0.00,   0.00, 1004.6,    0.4, -999.0
05-07-2023, 00:03:24,    241,    0.0,    9.0,   0.00,   0.00, 1004.6,    0.3, -999.0
05-07-2023, 00:03:34,    296,    0.4,    9.1,   0.00,   0.00, 1004.7,    0.3, -999.0
05-07-2023, 00:03:44,    295,    0.1,    9.0,   0.00,   0.00, 1004.6,    0.2, -999.0
05-07-2023, 00:03:54,    295,    0.0,    8.9,   0.00,   0.00, 1004.6,    0.3, -999.0
05-07-2023, 00:04:04,    295,    0.0,    9.0,   0.00,   0.00, 1004.7,    0.1, -999.0
05-07-2023, 00:04:14,    296,    0.0,    8.8,   0.00,   0.00, 1004.7,    0.3, -999.0
05-07-2023, 00:04:24,    287,    0.0,    8.9,   0.00,   0.00, 1004.7,    0.4, -999.0
05-07-2023, 00:04:34,    286,    0.3,    9.1,   0.00,   0.00, 1004.8,    0.3, -999.0
05-07-2023, 00:04:44,    287,    0.0,    9.0,   0.00,   0.00, 1004.7,    0.0, -999.0
05-07-2023, 00:04:54,    287,    0.4,    9.0,   0.00,   0.00, 1004.8,    0.5, -999.0
05-07-2023, 00:05:04,    279,    1.6,    9.1,   0.00,   0.00, 1004.8,    0.4, -999.0
05-07-2023, 00:05:14,    269,    0.3,    9.0,   0.00,   0.00, 1004.8,    0.5, -999.0
05-07-2023, 00:05:24,    268,    0.3,    9.0,   0.00,   0.00, 1004.8,    0.4, -999.0
05-07-2023, 00:05:34,    268,    0.0,    8.7,   0.00,   0.00, 1004.7,    0.2, -999.0
05-07-2023, 00:05:43,    268,    0.0,    8.9,   0.00,   0.00, 1004.7,    0.4, -999.0
05-07-2023, 00:05:54,    269,    0.5,    9.0,   0.00,   0.00, 1004.8,    0.5, -999.0
05-07-2023, 00:06:04,    268,    0.1,    9.0,   0.00,   0.00, 1004.7,    0.3, -999.0
05-07-2023, 00:06:13,    268,    0.0,    9.0,   0.00,   0.00, 1004.7,    0.4, -999.0
05-07-2023, 00:06:23,    268,    0.0,    8.9,   0.00,   0.00, 1004.7,    0.2, -999.0
05-07-2023, 00:06:34,    260,    0.4,    9.0,   0.00,   0.00, 1004.8,    0.2, -999.0
05-07-2023, 00:06:44,    260,    0.2,    9.1,   0.00,   0.00, 1004.7,    0.3, -999.0
05-07-2023, 00:06:53,    260,    0.0,    9.0,   0.00,   0.00, 1004.7,    0.3, -999.0
05-07-2023, 00:07:04,    272,    0.9,    9.0,   0.00,   0.00, 1004.8,    0.2, -999.0
05-07-2023, 00:07:14,    272,    0.5,    9.0,   0.00,   0.00, 1004.8,    0.5, -999.0
05-07-2023, 00:07:23,    272,    0.0,    9.0,   0.00,   0.00, 1004.7,    0.1, -999.0
05-07-2023, 00:07:33,    272,    0.0,    9.0,   0.00,   0.00, 1004.8,    0.4, -999.0
05-07-2023, 00:07:44,    273,    0.2,    9.0,   0.00,   0.00, 1004.8,    0.6, -999.0
05-07-2023, 00:07:53,    273,    0.4,    9.1,   0.00,   0.00, 1004.8,    0.5, -999.0
05-07-2023, 00:08:03,    273,    0.0,    9.0,   0.00,   0.00, 1004.8,    0.3, -999.0
05-07-2023, 00:08:13,    273,    0.0,    9.0,   0.00,   0.00, 1004.7,    0.3, -999.0
05-07-2023, 00:08:24,    273,    0.0,    9.0,   0.00,   0.00, 1004.7,    0.2, -999.0
05-07-2023, 00:08:33,    273,    0.0,    9.0,   0.00,   0.00, 1004.7,    0.3, -999.0
05-07-2023, 00:08:43,    273,    0.1,    9.0,   0.00,   0.00, 1004.7,    0.3, -999.0
05-07-2023, 00:08:53,    274,    0.0,    9.0,   0.00,   0.00, 1004.7,    0.4, -999.0
05-07-2023, 00:09:03,    274,    0.2,    8.9,   0.00,   0.00, 1004.8,    0.3, -999.0
05-07-2023, 00:09:13,    274,    0.1,    9.0,   0.00,   0.00, 1004.8,    0.4, -999.0
05-07-2023, 00:09:23,    272,    0.0,    9.0,   0.00,   0.00, 1004.7,    0.5, -999.0
05-07-2023, 00:09:33,    243,    0.4,    9.0,   0.00,   0.00, 1004.8,    0.6, -999.0
05-07-2023, 00:09:43,    244,    1.5,    9.0,   0.00,   0.00, 1004.8,    0.5, -999.0
05-07-2023, 00:09:53,    248,    2.7,    9.0,   0.00,   0.00, 1004.8,    0.3, -999.0
05-07-2023, 00:10:03,    248,    0.6,    9.0,   0.00,   0.00, 1004.8,    0.4, -999.0
05-07-2023, 00:10:13,    249,    0.0,    8.9,   0.00,   0.00, 1004.7,    0.4, -999.0
05-07-2023, 00:10:23,    299,    0.6,    8.9,   0.00,   0.00, 1004.7,    0.2, -999.0
05-07-2023, 00:10:33,    294,    0.7,    9.1,   0.00,   0.00, 1004.8,    0.4, -999.0
05-07-2023, 00:10:43,    278,    1.6,    8.9,   0.00,   0.00, 1004.8,    0.3, -999.0
05-07-2023, 00:10:53,    247,    1.4,    8.9,   0.00,   0.00, 1004.8,    0.4, -999.0
05-07-2023, 00:11:03,    251,    1.3,    9.0,   0.00,   0.00, 1004.7,    0.5, -999.0
05-07-2023, 00:11:13,    251,    0.4,    9.0,   0.00,   0.00, 1004.7,    0.2, -999.0
05-07-2023, 00:11:23,    256,    1.0,    9.0,   0.00,   0.00, 1004.7,    0.4, -999.0
05-07-2023, 00:11:33,    253,    1.0,    9.0,   0.00,   0.00, 1004.8,    0.3, -999.0
05-07-2023, 00:11:43,    252,    0.3,    9.0,   0.00,   0.00, 1004.7,    0.5, -999.0
05-07-2023, 00:11:53,    251,    0.0,    8.8,   0.00,   0.00, 1004.7,    0.2, -999.0
05-07-2023, 00:12:03,    251,    0.1,    8.9,   0.00,   0.00, 1004.7,    0.5, -999.0
05-07-2023, 00:12:13,    251,    0.0,    8.8,   0.00,   0.00, 1004.7,    0.3, -999.0
05-07-2023, 00:12:23,    251,    0.3,    8.9,   0.00,   0.00, 1004.8,    0.4, -999.0
05-07-2023, 00:12:33,    252,    0.4,    8.9,   0.00,   0.00, 1004.8,    0.3, -999.0
05-07-2023, 00:12:43,    274,    1.3,    9.0,   0.00,   0.00, 1004.8,    0.3, -999.0
05-07-2023, 00:12:53,    283,    1.9,    9.0,   0.00,   0.00, 1004.8,    0.3, -999.0
05-07-2023, 00:13:03,    266,    0.7,    9.0,   0.00,   0.00, 1004.8,    0.4, -999.0
05-07-2023, 00:13:13,    281,    1.7,    9.0,   0.00,   0.00, 1004.8,    0.3, -999.0
05-07-2023, 00:13:23,    278,    0.8,    8.9,   0.00,   0.00, 1004.8,    0.4, -999.0
05-07-2023, 00:13:33,    274,    1.8,    9.0,   0.00,   0.00, 1004.8,    0.3, -999.0
05-07-2023, 00:13:43,    268,    1.8,    9.0,   0.00,   0.00, 1004.8,    0.5, -999.0
05-07-2023, 00:13:53,    267,    1.9,    8.8,   0.00,   0.00, 1004.8,    0.4, -999.0
05-07-2023, 00:14:03,    268,    0.6,    9.0,   0.00,   0.00, 1004.8,    0.4, -999.0
05-07-2023, 00:14:13,    266,    0.3,    8.9,   0.00,   0.00, 1004.8,    0.4, -999.0
05-07-2023, 00:14:23,    266,    0.3,    8.9,   0.00,   0.00, 1004.8,    0.3, -999.0
05-07-2023, 00:14:32,    266,    0.0,    8.9,   0.00,   0.00, 1004.7,    0.3, -999.0
05-07-2023, 00:14:43,    266,    0.1,    8.8,   0.00,   0.00, 1004.7,    0.2, -999.0
05-07-2023, 00:14:53,    266,    0.2,    9.0,   0.00,   0.00, 1004.8,    0.4, -999.0
05-07-2023, 00:15:03,    266,    0.2,    9.0,   0.00,   0.00, 1004.8,    0.4, -999.0
05-07-2023, 00:15:12,    266,    0.1,    8.8,   0.00,   0.00, 1004.7,    0.2, -999.0
05-07-2023, 00:15:23,    268,    1.2,    9.0,   0.00,   0.00, 1004.8,    0.4, -999.0
05-07-2023, 00:15:33,    271,    1.1,    8.9,   0.00,   0.00, 1004.8,    0.3, -999.0
05-07-2023, 00:15:42,    271,    0.1,    8.9,   0.00,   0.00, 1004.7,    0.3, -999.0
05-07-2023, 00:15:52,    270,    0.9,    9.0,   0.00,   0.00, 1004.8,    0.5, -999.0
05-07-2023, 00:16:03,    270,    0.3,    8.9,   0.00,   0.00, 1004.7,    0.3, -999.0
05-07-2023, 00:16:12,    270,    0.0,    8.8,   0.00,   0.00, 1004.6,    0.4, -999.0
05-07-2023, 00:16:22,    271,    0.3,    8.8,   0.00,   0.00, 1004.7,    0.3, -999.0
05-07-2023, 00:16:32,    263,    0.4,    8.9,   0.00,   0.00, 1004.7,    0.2, -999.0
05-07-2023, 00:16:43,    263,    0.1,    8.8,   0.00,   0.00, 1004.7,    0.3, -999.0
05-07-2023, 00:16:52,    263,    0.0,    8.8,   0.00,   0.00, 1004.7,    0.2, -999.0
05-07-2023, 00:17:02,    262,    0.0,    8.8,   0.00,   0.00, 1004.6,    0.3, -999.0
05-07-2023, 00:17:13,    264,    0.0,    8.9,   0.00,   0.00, 1004.7,    0.3, -999.0
05-07-2023, 00:17:22,    263,    0.6,    8.9,   0.00,   0.00, 1004.7,    0.4, -999.0
05-07-2023, 00:17:32,    258,    1.4,    8.9,   0.00,   0.00, 1004.7,    0.5, -999.0
05-07-2023, 00:17:42,    258,    0.3,    8.8,   0.00,   0.00, 1004.7,    0.2, -999.0
05-07-2023, 00:17:52,    258,    0.0,    8.8,   0.00,   0.00, 1004.7,    0.4, -999.0
05-07-2023, 00:18:02,    267,    0.9,    8.9,   0.00,   0.00, 1004.8,    0.6, -999.0
05-07-2023, 00:18:12,    268,    1.0,    8.9,   0.00,   0.00, 1004.7,    0.3, -999.0
05-07-2023, 00:18:22,    270,    0.6,    8.8,   0.00,   0.00, 1004.7,    0.4, -999.0
05-07-2023, 00:18:32,    270,    0.0,    8.8,   0.00,   0.00, 1004.7,    0.4, -999.0
05-07-2023, 00:18:42,    270,    0.0,    8.8,   0.00,   0.00, 1004.7,    0.4, -999.0
05-07-2023, 00:18:52,    270,    0.2,    8.9,   0.00,   0.00, 1004.7,    0.3, -999.0
05-07-2023, 00:19:02,    269,    0.8,    8.9,   0.00,   0.00, 1004.7,    0.2, -999.0
05-07-2023, 00:19:12,    269,    0.2,    8.9,   0.00,   0.00, 1004.8,    0.4, -999.0
05-07-2023, 00:19:22,    275,    1.1,    8.9,   0.00,   0.00, 1004.8,    0.5, -999.0
05-07-2023, 00:19:32,    286,    1.2,    8.9,   0.00,   0.01, 1004.8,    0.2, -999.0
05-07-2023, 00:19:42,    286,    0.0,    8.8,   0.00,   0.00, 1004.7,    0.3, -999.0
05-07-2023, 00:19:52,    286,    0.2,    8.8,   0.00,   0.00, 1004.8,    0.3, -999.0
05-07-2023, 00:20:02,    282,    1.1,    8.9,   0.00,   0.00, 1004.8,    0.3, -999.0
05-07-2023, 00:20:12,    284,    1.3,    8.9,   0.00,   0.00, 1004.8,    0.4, -999.0
05-07-2023, 00:20:22,    285,    0.4,    8.9,   0.00,   0.00, 1004.8,    0.2, -999.0
05-07-2023, 00:20:32,    285,    0.0,    8.8,   0.00,   0.00, 1004.8,    0.4, -999.0
05-07-2023, 00:20:42,    285,    0.1,    8.9,   0.00,   0.00, 1004.8,    0.4, -999.0
05-07-2023, 00:20:52,    285,    0.2,    8.9,   0.00,   0.00, 1004.8,    0.2, -999.0
05-07-2023, 00:21:02,    283,    0.3,    8.8,   0.00,   0.00, 1004.8,    0.4, -999.0
05-07-2023, 00:21:12,    283,    0.7,    8.9,   0.00,   0.00, 1004.9,    0.5, -999.0
05-07-2023, 00:21:22,    283,    0.4,    8.9,   0.00,   0.00, 1004.9,    0.4, -999.0
05-07-2023, 00:21:32,    283,    0.0,    8.8,   0.00,   0.00, 1004.7,    0.3, -999.0
05-07-2023, 00:21:42,    283,    0.1,    8.8,   0.00,   0.00, 1004.8,    0.3, -999.0
05-07-2023, 00:21:52,    283,    0.0,    8.8,   0.00,   0.00, 1004.7,    0.3, -999.0
05-07-2023, 00:22:02,    283,    0.1,    8.8,   0.00,   0.00, 1004.8,    0.2, -999.0
05-07-2023, 00:22:12,    281,    1.8,    8.9,   0.00,   0.00, 1004.9,    0.4, -999.0
05-07-2023, 00:22:22,    262,    0.9,    8.9,   0.00,   0.00, 1004.9,    0.5, -999.0
05-07-2023, 00:22:32,    260,    0.9,    8.9,   0.00,   0.00, 1004.9,    0.4, -999.0
05-07-2023, 00:22:42,    256,    1.4,    8.9,   0.00,   0.00, 1004.8,    0.3, -999.0
05-07-2023, 00:22:51,    257,    0.7,    8.9,   0.00,   0.00, 1004.9,    0.4, -999.0
05-07-2023, 00:23:02,    266,    1.8,    8.9,   0.00,   0.00, 1004.9,    0.2, -999.0
05-07-2023, 00:23:12,    270,    2.4,    8.9,   0.00,   0.00, 1004.9,    0.5, -999.0
05-07-2023, 00:23:22,    274,    1.9,    8.8,   0.00,   0.00, 1004.9,    0.4, -999.0
05-07-2023, 00:23:32,    274,    0.9,    8.8,   0.00,   0.00, 1004.8,    0.4, -999.0
05-07-2023, 00:23:42,    260,    0.5,    8.9,   0.00,   0.00, 1004.8,    0.4, -999.0
05-07-2023, 00:23:52,    260,    0.2,    8.8,   0.00,   0.00, 1004.8,    0.4, -999.0
05-07-2023, 00:24:01,    255,    1.3,    8.8,   0.00,   0.00, 1004.9,    0.4, -999.0
05-07-2023, 00:24:12,    256,    0.6,    8.8,   0.00,   0.00, 1004.9,    0.3, -999.0
05-07-2023, 00:24:22,    256,    0.2,    8.8,   0.00,   0.00, 1004.8,    0.3, -999.0
05-07-2023, 00:24:31,    256,    0.0,    8.8,   0.00,   0.00, 1004.7,    0.3, -999.0
05-07-2023, 00:24:41,    255,    0.0,    8.7,   0.00,   0.00, 1004.7,    0.3, -999.0
05-07-2023, 00:24:52,    257,    0.2,    8.8,   0.00,   0.00, 1004.8,    0.4, -999.0
05-07-2023, 00:25:02,    257,    0.6,    8.8,   0.00,   0.00, 1004.8,    0.5, -999.0
05-07-2023, 00:25:11,    257,    0.1,    8.7,   0.00,   0.00, 1004.8,    0.3, -999.0
05-07-2023, 00:25:21,    256,    1.2,    8.8,   0.00,   0.00, 1004.9,    0.5, -999.0
05-07-2023, 00:25:32,    234,    1.0,    8.8,   0.00,   0.00, 1004.9,    0.5, -999.0
05-07-2023, 00:25:41,    263,    1.0,    8.8,   0.00,   0.00, 1004.9,    0.3, -999.0
05-07-2023, 00:25:51,    265,    0.6,    8.8,   0.00,   0.00, 1004.8,    0.2, -999.0
05-07-2023, 00:26:01,    274,    1.7,    8.8,   0.00,   0.00, 1004.9,    0.3, -999.0
05-07-2023, 00:26:11,    275,    0.9,    8.8,   0.00,   0.00, 1004.9,    0.3, -999.0
05-07-2023, 00:26:21,    274,    0.2,    8.7,   0.00,   0.00, 1004.8,    0.3, -999.0
05-07-2023, 00:26:31,    210,    0.3,    8.7,   0.00,   0.00, 1004.8,    0.5, -999.0
05-07-2023, 00:26:42,    244,    0.6,    8.7,   0.00,   0.00, 1004.9,    0.3, -999.0
05-07-2023, 00:26:51,    245,    0.0,    8.7,   0.00,   0.00, 1004.7,    0.2, -999.0
05-07-2023, 00:27:01,    251,    0.3,    8.8,   0.00,   0.00, 1004.8,    0.2, -999.0
05-07-2023, 00:27:11,    253,    0.6,    8.7,   0.00,   0.00, 1004.9,    0.5, -999.0
05-07-2023, 00:27:21,    253,    1.5,    8.8,   0.00,   0.00, 1004.9,    0.2, -999.0
05-07-2023, 00:27:31,    253,    0.9,    8.7,   0.00,   0.00, 1004.9,    0.3, -999.0
05-07-2023, 00:27:41,    253,    0.6,    8.7,   0.00,   0.00, 1004.9,    0.4, -999.0
05-07-2023, 00:27:51,    263,    0.6,    8.7,   0.00,   0.00, 1004.8,    0.3, -999.0
05-07-2023, 00:28:01,    267,    1.0,    8.7,   0.00,   0.00, 1004.9,    0.4, -999.0
05-07-2023, 00:28:11,    263,    1.2,    8.7,   0.00,   0.00, 1004.9,    0.4, -999.0
05-07-2023, 00:28:21,    263,    1.3,    8.7,   0.00,   0.00, 1004.9,    0.2, -999.0
05-07-2023, 00:28:31,    262,    1.7,    8.7,   0.00,   0.00, 1004.9,    0.3, -999.0
05-07-2023, 00:28:41,    262,    0.9,    8.8,   0.00,   0.00, 1004.9,    0.4, -999.0
05-07-2023, 00:28:51,    261,    0.2,    8.7,   0.00,   0.00, 1004.8,    0.4, -999.0
05-07-2023, 00:29:01,    262,    0.0,    8.7,   0.00,   0.00, 1004.7,    0.3, -999.0
05-07-2023, 00:29:11,    261,    0.0,    8.7,   0.00,   0.00, 1004.7,    0.4, -999.0
05-07-2023, 00:29:21,    262,    0.0,    8.7,   0.00,   0.00, 1004.7,    0.2, -999.0
05-07-2023, 00:29:31,    262,    0.0,    8.6,   0.00,   0.00, 1004.7,    0.3, -999.0
05-07-2023, 00:29:41,    262,    0.0,    8.7,   0.00,   0.00, 1004.7,    0.4, -999.0
05-07-2023, 00:29:51,    262,    0.0,    8.6,   0.00,   0.00, 1004.7,    0.2, -999.0
05-07-2023, 00:30:01,    262,    0.0,    8.7,   0.00,   0.00, 1004.8,    0.5, -999.0
05-07-2023, 00:30:11,    261,    0.0,    8.6,   0.00,   0.00, 1004.8,    0.2, -999.0
05-07-2023, 00:30:21,    262,    0.0,    8.6,   0.00,   0.00, 1004.7,    0.5, -999.0
05-07-2023, 00:30:31,    263,    0.0,    8.6,   0.00,   0.00, 1004.7,    0.2, -999.0
05-07-2023, 00:30:41,    262,    0.0,    8.6,   0.00,   0.00, 1004.7,    0.3, -999.0
05-07-2023, 00:30:51,    263,    0.0,    8.6,   0.00,   0.00, 1004.8,    0.3, -999.0
05-07-2023, 00:31:01,    263,    0.0,    8.6,   0.00,   0.00, 1004.8,    0.2, -999.0
05-07-2023, 00:31:11,    263,    0.4,    8.7,   0.00,   0.00, 1004.9,    0.3, -999.0
05-07-2023, 00:31:21,    265,    0.7,    8.7,   0.00,   0.00, 1004.9,    0.4, -999.0
05-07-2023, 00:31:31,    275,    1.4,    8.8,   0.00,   0.00, 1004.9,    0.3, -999.0
05-07-2023, 00:31:40,    209,    1.3,    8.7,   0.00,   0.00, 1004.9,    0.5, -999.0
05-07-2023, 00:31:51,    210,    0.2,    8.6,   0.00,   0.00, 1004.8,    0.2, -999.0
05-07-2023, 00:32:01,    210,    0.0,    8.6,   0.00,   0.00, 1004.7,    0.3, -999.0
05-07-2023, 00:32:11,    228,    0.1,    8.6,   0.00,   0.00, 1004.8,    0.5, -999.0
05-07-2023, 00:32:21,    227,    0.0,    8.6,   0.00,   0.00, 1004.8,    0.2, -999.0
05-07-2023, 00:32:31,    228,    0.3,    8.6,   0.00,   0.00, 1004.8,    0.2, -999.0
05-07-2023, 00:32:41,    228,    0.3,    8.6,   0.00,   0.00, 1004.9,    0.1, -999.0
05-07-2023, 00:32:50,    248,    0.9,    8.6,   0.00,   0.00, 1004.8,    0.4, -999.0
05-07-2023, 00:33:01,    249,    1.3,    8.6,   0.00,   0.00, 1004.9,    0.6, -999.0
05-07-2023, 00:33:11,    248,    0.4,    8.7,   0.00,   0.00, 1004.8,    0.1, -999.0
05-07-2023, 00:33:20,    249,    0.3,    8.6,   0.00,   0.00, 1004.8,    0.3, -999.0
05-07-2023, 00:33:30,    249,    0.0,    8.6,   0.00,   0.00, 1004.8,    0.2, -999.0
05-07-2023, 00:33:41,    256,    0.6,    8.6,   0.00,   0.00, 1004.8,    0.3, -999.0
05-07-2023, 00:33:51,    256,    0.6,    8.6,   0.00,   0.00, 1004.8,    0.5, -999.0
05-07-2023, 00:34:00,    256,    0.4,    8.6,   0.00,   0.00, 1004.8,    0.3, -999.0
05-07-2023, 00:34:10,    263,    0.6,    8.7,   0.00,   0.00, 1004.9,    0.2, -999.0
05-07-2023, 00:34:21,    263,    0.3,    8.6,   0.00,   0.00, 1004.8,    0.4, -999.0
05-07-2023, 00:34:30,    263,    0.0,    8.5,   0.00,   0.00, 1004.8,    0.3, -999.0
05-07-2023, 00:34:40,    262,    0.0,    8.6,   0.00,   0.00, 1004.7,    0.3, -999.0
05-07-2023, 00:34:51,    263,    0.0,    8.5,   0.00,   0.00, 1004.7,    0.4, -999.0
05-07-2023, 00:35:00,    263,    0.0,    8.5,   0.00,   0.00, 1004.7,    0.2, -999.0
05-07-2023, 00:35:10,    263,    0.0,    8.5,   0.00,   0.00, 1004.7,    0.3, -999.0
05-07-2023, 00:35:20,    263,    0.0,    8.5,   0.00,   0.00, 1004.8,    0.3, -999.0
05-07-2023, 00:35:31,    262,    0.2,    8.6,   0.00,   0.00, 1004.9,    0.3, -999.0
05-07-2023, 00:35:40,    262,    0.2,    8.6,   0.00,   0.00, 1004.9,    0.3, -999.0
05-07-2023, 00:35:50,    262,    0.9,    8.5,   0.00,   0.00, 1004.9,    0.3, -999.0
05-07-2023, 00:36:00,    262,    0.5,    8.6,   0.00,   0.00, 1004.9,    0.4, -999.0
05-07-2023, 00:36:10,    263,    0.0,    8.5,   0.00,   0.00, 1004.8,    0.3, -999.0
05-07-2023, 00:36:20,    263,    0.0,    8.5,   0.00,   0.00, 1004.7,    0.3, -999.0
05-07-2023, 00:36:30,    262,    0.0,    8.5,   0.00,   0.00, 1004.7,    0.3, -999.0
05-07-2023, 00:36:40,    263,    0.0,    8.5,   0.00,   0.00, 1004.8,    0.2, -999.0
05-07-2023, 00:36:50,    262,    0.0,    8.5,   0.00,   0.00, 1004.8,    0.3, -999.0
05-07-2023, 00:37:00,    262,    0.0,    8.5,   0.00,   0.00, 1004.8,    0.2, -999.0
05-07-2023, 00:37:10,    262,    0.0,    8.6,   0.00,   0.00, 1004.8,    0.4, -999.0
05-07-2023, 00:37:20,    262,    0.0,    8.5,   0.00,   0.00, 1004.8,    0.3, -999.0
05-07-2023, 00:37:30,    263,    0.0,    8.5,   0.00,   0.00, 1004.8,    0.1, -999.0
05-07-2023, 00:37:40,    263,    0.0,    8.5,   0.00,   0.00, 1004.8,    0.3, -999.0
05-07-2023, 00:37:50,    262,    0.0,    8.5,   0.00,   0.00, 1004.8,    0.3, -999.0
05-07-2023, 00:38:00,    269,    0.0,    8.6,   0.00,   0.00, 1004.8,    0.3, -999.0
05-07-2023, 00:38:10,    270,    0.0,    8.5,   0.00,   0.00, 1004.8,    0.2, -999.0
05-07-2023, 00:38:20,    270,    0.0,    8.5,   0.00,   0.00, 1004.8,    0.1, -999.0
05-07-2023, 00:38:30,    271,    0.0,    8.5,   0.00,   0.00, 1004.8,    0.2, -999.0
05-07-2023, 00:38:40,    270,    0.0,    8.5,   0.00,   0.00, 1004.8,    0.3, -999.0
05-07-2023, 00:38:50,    270,    0.0,    8.6,   0.00,   0.00, 1004.8,    0.2, -999.0
05-07-2023, 00:39:00,    270,    0.0,    8.5,   0.00,   0.00, 1004.8,    0.4, -999.0
05-07-2023, 00:39:10,    270,    0.0,    8.5,   0.00,   0.00, 1004.8,    0.2, -999.0
05-07-2023, 00:39:20,    270,    0.0,    8.5,   0.00,   0.00, 1004.8,    0.3, -999.0
05-07-2023, 00:39:30,    270,    0.0,    8.5,   0.00,   0.00, 1004.8,    0.3, -999.0
05-07-2023, 00:39:40,    270,    0.0,    8.4,   0.00,   0.00, 1004.8,    0.3, -999.0
05-07-2023, 00:39:50,    270,    0.0,    8.5,   0.00,   0.00, 1004.9,    0.1, -999.0
05-07-2023, 00:40:00,    271,    0.0,    8.5,   0.00,   0.00, 1004.9,    0.2, -999.0
05-07-2023, 00:40:10,    238,    0.2,    8.5,   0.00,   0.00, 1004.8,    0.2, -999.0
05-07-2023, 00:40:20,    212,    0.9,    8.6,   0.00,   0.00, 1004.9,    0.5, -999.0
05-07-2023, 00:40:30,    223,    0.3,    8.5,   0.00,   0.00, 1005.0,    0.2, -999.0
05-07-2023, 00:40:40,    243,    0.4,    8.5,   0.00,   0.00, 1005.0,    0.5, -999.0
05-07-2023, 00:40:50,    243,    0.0,    8.4,   0.00,   0.00, 1004.9,    0.5, -999.0
05-07-2023, 00:41:00,    243,    0.0,    8.4,   0.00,   0.00, 1004.8,    0.1, -999.0
05-07-2023, 00:41:10,    249,    0.3,    8.4,   0.00,   0.00, 1004.9,    0.4, -999.0
05-07-2023, 00:41:20,    249,    0.6,    8.5,   0.00,   0.00, 1004.9,    0.4, -999.0
05-07-2023, 00:41:30,    249,    0.0,    8.4,   0.00,   0.00, 1004.8,    0.2, -999.0
05-07-2023, 00:41:39,    249,    0.0,    8.4,   0.00,   0.00, 1004.8,    0.2, -999.0
05-07-2023, 00:41:50,    266,    0.6,    8.4,   0.00,   0.00, 1005.0,    0.4, -999.0
05-07-2023, 00:42:00,    266,    2.6,    8.5,   0.00,   0.00, 1005.0,    0.3, -999.0
05-07-2023, 00:42:09,    267,    1.0,    8.5,   0.00,   0.00, 1005.0,    0.3, -999.0
05-07-2023, 00:42:19,    266,    1.1,    8.5,   0.00,   0.00, 1005.0,    0.5, -999.0
05-07-2023, 00:42:30,    266,    0.8,    8.5,   0.00,   0.00, 1005.0,    0.4, -999.0
05-07-2023, 00:42:40,    265,    0.7,    8.5,   0.00,   0.00, 1005.0,    0.4, -999.0
05-07-2023, 00:42:49,    262,    1.0,    8.5,   0.00,   0.00, 1004.9,    0.3, -999.0
05-07-2023, 00:42:59,    261,    2.0,    8.4,   0.00,   0.00, 1005.0,    0.3, -999.0
05-07-2023, 00:43:10,    273,    1.8,    8.4,   0.00,   0.00, 1005.0,    0.3, -999.0
05-07-2023, 00:43:19,    275,    0.7,    8.4,   0.00,   0.00, 1005.0,    0.4, -999.0
05-07-2023, 00:43:29,    266,    1.0,    8.4,   0.00,   0.00, 1005.0,    0.4, -999.0
05-07-2023, 00:43:40,    262,    2.2,    8.4,   0.00,   0.00, 1005.0,    0.4, -999.0
05-07-2023, 00:43:49,    262,    0.9,    8.4,   0.00,   0.00, 1005.0,    0.3, -999.0
05-07-2023, 00:43:59,    260,    0.7,    8.4,   0.00,   0.00, 1005.0,    0.3, -999.0
05-07-2023, 00:44:09,    261,    1.1,    8.3,   0.00,   0.00, 1005.0,    0.3, -999.0
05-07-2023, 00:44:20,    262,    1.2,    8.4,   0.00,   0.00, 1005.0,    0.5, -999.0
05-07-2023, 00:44:29,    262,    1.2,    8.2,   0.00,   0.00, 1005.0,    0.4, -999.0
05-07-2023, 00:44:39,    264,    1.0,    8.4,   0.00,   0.00, 1005.0,    0.5, -999.0
05-07-2023, 00:44:49,    264,    1.2,    8.5,   0.00,   0.00, 1005.0,    0.5, -999.0
05-07-2023, 00:44:59,    261,    0.4,    8.4,   0.00,   0.00, 1005.0,    0.5, -999.0
05-07-2023, 00:45:09,    262,    0.3,    8.3,   0.00,   0.00, 1004.9,    0.3, -999.0
05-07-2023, 00:45:19,    260,    1.9,    8.3,   0.00,   0.00, 1005.0,    0.3, -999.0
05-07-2023, 00:45:29,    261,    1.3,    8.4,   0.00,   0.00, 1005.0,    0.3, -999.0
05-07-2023, 00:45:39,    261,    1.1,    8.4,   0.00,   0.00, 1005.1,    0.4, -999.0
05-07-2023, 00:45:49,    261,    0.1,    8.4,   0.00,   0.00, 1004.9,    0.4, -999.0
05-07-2023, 00:45:59,    261,    1.0,    8.4,   0.00,   0.00, 1005.1,    0.3, -999.0
05-07-2023, 00:46:09,    261,    0.4,    8.4,   0.00,   0.00, 1005.0,    0.3, -999.0
05-07-2023, 00:46:19,    261,    0.2,    8.3,   0.00,   0.00, 1005.0,    0.3, -999.0
05-07-2023, 00:46:29,    261,    0.0,    8.4,   0.00,   0.00, 1004.9,    0.3, -999.0
05-07-2023, 00:46:39,    267,    0.5,    8.3,   0.00,   0.00, 1005.0,    0.4, -999.0
05-07-2023, 00:46:49,    248,    1.3,    8.4,   0.00,   0.00, 1005.0,    0.3, -999.0